EDT,Max TemperatureF,Mean TemperatureF,Min TemperatureF,Max Dew PointF,MeanDew PointF,Min DewpointF,Max Humidity, Mean Humidity, Min Humidity, Max Sea Level PressureIn, Mean Sea Level PressureIn, Min Sea Level PressureIn, Max VisibilityMiles, Mean VisibilityMiles, Min VisibilityMiles, Max Wind SpeedMPH, Mean Wind SpeedMPH, Max Gust SpeedMPH,PrecipitationIn, CloudCover, Events, WindDirDegrees
2013-8-1,89,80,70,73,71,69,100,78,55,30.00,29.96,29.91,10,9,1,15,4,18,T,5,Rain,297
2013-8-2,88,77,65,70,68,65,100,73,46,30.04,29.99,29.94,10,9,5,6,1,44,0.00,0,,338
2013-8-3,86,75,64,75,69,64,100,83,65,30.08,30.03,29.99,10,6,1,5,1,7,0.00,3,,286
2013-8-4,90,81,71,74,72,66,100,78,56,30.07,30.01,29.96,10,9,5,15,4,17,0.00,3,,355
2013-8-5,88,77,66,70,66,60,93,67,40,30.05,30.00,29.97,10,10,10,7,2,10,0.00,2,,320
2013-8-6,86,79,71,74,71,69,100,83,65,30.01,29.97,29.93,10,10,10,13,2,15,0.00,5,,228
2013-8-7,84,78,72,76,73,70,100,87,74,30.03,29.99,29.94,10,9,1,13,2,25,0.49,6,Rain-Thunderstorm,85
2013-8-8,89,80,71,77,74,71,100,82,64,30.05,30.00,29.96,10,8,2,16,3,21,0.15,5,Rain-Thunderstorm,163
2013-8-9,90,81,71,76,74,72,100,80,59,30.10,30.03,29.98,10,8,2,14,2,17,0.00,4,,215
2013-8-10,92,82,72,76,73,72,100,76,52,30.13,30.09,30.04,10,8,0,17,2,24,0.00,4,Fog,300
2013-8-11,91,81,70,75,73,70,100,78,56,30.17,30.10,30.05,10,10,10,13,3,15,0.00,2,Thunderstorm,320
2013-8-12,90,81,71,79,74,71,100,80,59,30.12,30.07,29.98,10,8,1,15,2,20,0.30,4,Rain-Thunderstorm,28
2013-8-13,89,81,72,73,72,70,100,79,57,29.99,29.93,29.86,10,10,7,10,3,14,T,4,Rain,280
2013-8-14,83,75,67,71,67,62,93,76,58,30.01,29.94,29.90,10,10,10,15,6,18,0.00,1,,357
2013-8-15,77,73,68,66,62,58,84,69,54,30.06,30.03,29.99,10,10,10,15,6,22,0.00,8,,74
2013-8-16,71,68,65,64,62,60,93,81,68,30.11,30.06,30.02,10,10,5,12,3,15,T,8,Rain,72
2013-8-17,69,68,66,66,63,61,100,88,76,30.14,30.10,30.06,10,9,2,13,3,15,0.04,8,Rain,99
2013-8-18,77,72,66,72,69,66,100,91,82,30.19,30.14,30.09,10,8,1,7,1,31,0.87,8,Rain,127
2013-8-19,84,77,69,73,71,68,100,85,69,30.14,30.09,30.02,10,10,4,9,3,12,0.03,6,Rain,60
2013-8-20,83,77,70,75,71,70,100,85,69,30.18,30.12,30.07,10,10,10,10,2,14,0.00,6,,82
2013-8-21,85,78,71,77,73,71,100,87,74,30.22,30.15,30.09,10,10,7,9,2,13,0.01,5,Rain-Thunderstorm,134
2013-8-22,89,79,69,75,71,67,100,80,59,30.18,30.13,30.03,10,5,0,15,2,20,0.00,5,Fog-Thunderstorm,39
2013-8-23,90,79,68,74,70,68,100,76,52,30.11,30.05,29.97,10,5,0,9,2,16,0.00,5,Fog,13
2013-8-24,86,77,67,70,69,67,100,79,57,30.23,30.13,30.04,10,8,2,13,6,17,0.00,2,,102
2013-8-25,85,76,66,67,64,61,93,71,48,30.34,30.27,30.22,10,10,10,15,4,21,0.00,2,,102
2013-8-26,86,73,60,66,62,60,100,72,44,30.31,30.23,30.14,10,10,9,10,2,24,0.00,1,,39
2013-8-27,89,75,60,71,65,60,100,73,46,30.16,30.10,30.03,10,8,3,12,2,18,0.00,1,,360
2013-8-28,92,79,65,73,69,64,100,75,49,30.06,30.02,29.97,10,7,2,10,2,15,0.00,1,,342
2013-8-29,94,81,68,75,71,68,100,73,46,30.05,29.98,29.92,10,7,2,13,3,43,0.00,0,,321
2013-8-30,88,80,72,75,74,72,100,84,68,30.03,29.96,29.91,10,8,4,12,2,14,0.00,3,Thunderstorm,131
2013-8-31,95,84,72,76,73,72,100,76,52,29.99,29.92,29.83,10,8,5,10,1,13,0.00,3,Thunderstorm,224